Wind_Speed
20 20 20 21 21 22 24 26 27 28 29 31 33 35 36 37 38 39 40 41 42 42 43 44 45 46 46 47 48 49 50 51 51 50 51 51 51 51 51 51 53 54
21 21 22 22 23 24 25 27 28 28 29 31 33 35 37 38 39 41 42 43 43 44 45 45 46 47 48 48 49 51 51 52 52 52 53 53 53 52 52 52 53 54
22 23 23 24 24 26 27 28 28 28 30 32 34 36 38 39 40 42 43 44 44 45 46 47 47 48 49 50 51 52 52 53 53 54 55 55 54 54 53 54 54 55
24 24 25 25 26 27 28 29 29 30 31 33 35 37 39 40 41 42 44 44 45 46 47 48 48 49 49 50 51 52 52 53 53 54 55 55 55 55 54 54 55 55
25 26 26 27 27 28 30 30 31 32 33 35 37 38 40 41 42 43 44 45 46 47 48 48 49 49 49 50 51 51 51 52 53 54 55 55 55 55 55 54 55 55
27 28 28 29 30 31 31 31 32 34 35 36 38 39 41 42 43 44 46 46 47 48 48 48 48 48 49 49 50 50 51 51 52 53 54 54 54 54 55 54 54 54
30 31 31 31 32 32 32 33 34 36 37 38 39 41 42 43 44 46 47 47 48 48 48 48 48 48 49 50 51 51 51 51 51 52 52 52 52 53 53 53 53 54
33 33 33 33 33 33 33 34 35 37 39 40 41 43 44 44 45 46 47 48 48 48 48 48 49 49 50 51 52 52 51 51 51 50 50 50 50 52 52 53 53 53
35 34 35 34 34 34 34 35 37 38 40 41 42 44 45 45 46 46 46 47 47 47 48 48 49 50 51 52 52 52 52 52 51 50 50 50 50 51 51 52 53 52
37 36 36 36 36 36 36 37 38 40 41 42 42 44 44 45 45 45 46 46 46 46 47 48 49 50 51 52 52 52 52 51 50 50 50 50 51 51 52 52 52 52
39 38 38 38 38 39 39 40 40 41 42 42 43 44 44 45 45 45 45 44 44 45 45 46 47 48 50 50 50 50 50 50 50 50 51 51 52 52 53 53 53 53
42 41 41 41 41 41 41 42 42 42 42 42 43 43 44 45 44 43 42 41 41 42 43 44 46 48 48 49 50 50 51 50 50 51 51 52 52 52 53 53 53 52
44 43 43 43 43 43 43 43 44 44 43 43 43 43 44 43 41 39 38 38 38 39 41 43 44 46 48 49 51 52 52 52 52 52 52 52 52 52 52 52 51 50
45 45 44 44 44 44 44 45 45 45 44 43 44 43 41 39 37 35 35 35 36 37 39 41 43 45 48 50 52 53 54 54 54 53 53 53 53 53 52 50 49 48
46 46 45 45 45 45 45 46 46 45 43 43 43 41 38 35 33 32 32 33 34 36 39 41 44 46 49 51 53 54 55 55 55 54 54 54 53 52 50 49 47 46
47 47 46 46 46 46 47 47 45 44 44 43 41 38 35 32 31 30 31 32 35 37 40 43 45 48 50 52 53 54 54 54 53 54 53 52 51 49 47 46 44 42
49 48 47 47 47 47 48 47 45 44 44 42 40 36 33 31 30 30 31 33 36 39 41 43 46 48 50 51 52 52 50 49 49 49 49 48 46 45 43 42 40 39
50 49 48 48 48 49 48 47 45 45 44 41 38 35 33 31 30 30 31 34 37 39 42 44 46 48 49 49 48 47 45 44 43 44 43 42 41 41 40 39 37 36
51 50 49 49 49 49 49 47 46 45 43 40 38 35 33 32 31 31 32 35 37 40 42 45 47 48 47 46 44 42 40 39 39 38 38 38 38 37 37 36 35 34
52 51 50 50 50 50 49 48 47 45 43 40 39 37 35 34 33 32 33 36 38 40 43 46 48 47 46 43 41 38 37 36 36 35 35 36 36 36 36 35 35 34
52 51 51 52 52 51 50 49 48 45 43 41 40 39 38 36 35 34 35 37 39 41 44 46 47 46 44 41 38 36 35 35 35 35 35 36 36 36 36 36 35 35
53 53 53 53 53 52 51 51 49 46 44 43 43 42 40 38 36 35 35 37 39 41 43 44 44 44 42 39 36 34 33 34 34 35 35 35 35 35 35 36 35 35
54 54 55 55 54 53 53 51 49 46 45 46 46 44 41 40 37 35 36 37 38 39 39 40 41 41 40 38 36 33 32 33 33 34 34 34 34 34 35 35 35 35
56 57 57 57 55 54 53 51 48 48 48 48 47 44 42 40 37 35 36 37 36 36 36 37 38 38 38 37 36 34 33 32 33 33 34 34 34 35 35 35 35 35
57 58 58 57 56 54 52 50 49 49 50 50 48 45 43 41 37 36 36 36 35 35 35 35 35 35 35 36 36 35 34 33 33 33 34 35 36 36 36 36 36 37
58 58 58 57 55 54 51 50 50 51 52 51 49 46 44 41 38 36 36 35 34 35 35 35 33 32 34 36 36 35 34 34 34 34 35 36 37 38 38 38 38 39
Wind_Direction
279 282 284 285 285 283 282 281 282 283 283 282 280 279 279 279 279 280 281 281 283 284 284 285 285 286 287 288 288 289 290 290 291 291 292 292 293 293 294 294 294 294
278 281 283 286 286 284 284 285 287 288 287 284 282 281 280 280 281 282 283 284 285 286 286 286 287 287 288 288 288 289 289 290 290 290 291 291 292 292 293 293 293 294
277 281 284 286 286 286 286 288 290 289 286 283 282 281 281 281 282 283 283 284 284 285 285 286 287 287 288 288 289 290 290 290 291 291 291 292 292 293 293 293 294 294
278 281 284 285 285 285 286 288 289 286 283 282 281 280 280 281 281 282 282 283 284 285 286 287 287 288 289 290 291 291 292 292 292 293 293 294 294 294 294 294 294 294
277 280 282 283 283 283 286 288 286 282 281 280 279 280 280 280 281 282 283 284 285 286 287 288 289 291 291 292 293 293 294 294 294 295 296 296 296 295 294 294 293 293
276 278 281 282 283 284 286 285 282 281 280 279 279 279 280 281 282 282 283 284 286 287 289 290 291 293 293 294 295 296 297 298 297 297 298 298 297 295 294 293 293 293
276 279 281 283 283 284 284 282 280 279 279 278 278 279 279 280 281 282 283 284 286 288 290 292 293 294 295 296 297 298 299 299 299 298 298 297 296 294 294 294 294 296
276 279 280 281 282 282 282 280 278 277 277 277 278 278 278 279 280 281 283 284 286 288 290 291 292 294 295 296 297 297 297 297 297 296 295 295 294 295 296 296 298 299
276 277 278 280 281 281 280 278 276 275 275 275 276 276 277 279 280 281 282 284 285 287 289 290 292 293 294 295 295 295 295 295 295 295 295 295 296 296 297 298 299 299
275 277 278 280 280 280 279 278 276 275 274 275 275 276 277 278 280 281 283 285 286 288 290 291 292 293 294 294 294 295 295 296 297 297 297 298 297 298 298 298 299 299
276 277 279 280 280 280 279 278 277 275 274 274 274 275 276 278 279 282 284 286 288 290 291 292 293 294 294 294 295 296 297 298 298 299 299 299 299 300 300 300 299 299
276 277 278 278 279 279 278 278 277 275 274 273 273 274 276 278 280 283 285 288 290 292 294 295 295 296 296 296 297 297 297 298 298 299 299 300 300 300 300 299 299 300
273 274 275 276 276 276 276 276 275 273 272 272 273 274 276 279 282 284 287 291 294 296 298 299 299 299 298 298 298 297 297 298 298 298 298 298 298 298 299 300 300 301
270 271 272 272 273 274 274 274 272 271 271 271 273 275 277 280 282 286 290 294 298 300 302 302 302 300 300 299 299 298 298 298 298 297 297 296 297 298 300 301 302 304
267 268 269 270 271 272 272 271 270 269 270 271 273 275 277 279 283 288 293 298 302 304 304 303 302 302 302 302 301 301 300 299 298 297 297 297 298 300 302 303 305 306
266 267 269 269 269 270 270 269 268 268 269 271 273 274 275 278 285 291 296 301 304 304 303 302 303 304 304 303 303 302 302 301 300 299 299 299 301 303 304 305 306 307
266 267 268 268 268 269 269 268 267 267 268 270 271 271 272 278 286 292 298 302 302 302 303 304 305 305 304 304 303 303 304 304 303 302 302 303 303 305 305 306 306 306
265 266 267 266 267 268 267 266 265 266 267 268 268 268 271 278 285 292 297 300 301 302 303 304 305 305 305 305 304 304 305 305 305 305 305 306 306 306 306 306 306 305
264 265 265 265 266 266 265 263 263 265 266 265 265 266 270 277 283 290 295 299 300 302 303 305 307 307 307 306 305 306 306 306 306 307 307 308 308 307 307 307 306 305
264 264 264 264 265 265 263 262 263 264 264 264 263 265 269 275 281 287 293 297 299 301 304 307 309 309 309 308 306 306 306 306 307 307 308 308 307 307 308 308 307 307
263 263 263 263 264 264 262 262 263 264 263 262 262 264 269 274 279 286 292 296 298 302 306 309 310 310 309 308 306 306 305 306 306 307 307 307 307 308 308 308 308 308
261 261 261 261 262 261 261 261 262 262 262 261 261 263 268 273 278 285 291 294 299 305 309 311 311 311 309 307 306 305 305 305 306 307 307 308 308 308 308 308 308 308
260 259 259 259 259 259 259 260 261 261 259 259 260 263 268 273 278 284 289 294 300 307 311 313 312 311 308 306 305 304 304 305 306 306 307 307 306 306 306 306 306 306
257 256 256 257 257 257 258 259 260 259 258 258 259 263 268 272 277 283 288 294 301 305 309 312 311 309 307 305 303 303 303 303 304 305 305 305 304 304 304 304 304 304
254 254 255 256 257 257 258 259 259 258 257 257 259 263 268 272 276 282 287 293 299 301 303 307 308 307 305 302 300 300 300 301 302 302 302 302 303 303 303 303 303 303
253 253 254 256 257 257 258 259 258 258 257 258 260 264 268 271 275 281 285 290 296 298 298 300 301 301 300 297 296 296 297 298 299 299 299 300 301 303 303 303 303 303
Height
5835 5835 5835 5834 5834 5834 5833 5833 5832 5832 5831 5830 5829 5828 5826 5825 5824 5822 5821 5820 5819 5817 5816 5815 5813 5811 5810 5808 5806 5804 5802 5800 5798 5796 5795 5793 5791 5789 5787 5784 5782 5779
5832 5831 5831 5831 5831 5830 5829 5829 5828 5828 5827 5826 5825 5823 5822 5821 5820 5818 5817 5816 5814 5813 5811 5810 5808 5806 5804 5803 5801 5799 5797 5795 5793 5791 5789 5788 5786 5784 5782 5779 5777 5774
5828 5828 5828 5827 5827 5826 5825 5825 5824 5824 5823 5821 5820 5819 5818 5817 5816 5814 5813 5811 5810 5808 5806 5805 5803 5801 5799 5798 5796 5794 5792 5790 5788 5786 5784 5782 5781 5779 5777 5774 5771 5769
5825 5824 5824 5823 5823 5822 5821 5821 5820 5819 5818 5817 5816 5815 5813 5812 5811 5810 5808 5807 5805 5803 5801 5800 5798 5796 5794 5793 5791 5789 5788 5786 5783 5781 5779 5777 5775 5773 5772 5769 5766 5764
5821 5820 5820 5819 5819 5818 5817 5817 5816 5815 5814 5813 5811 5810 5809 5808 5806 5805 5804 5802 5801 5799 5797 5795 5794 5792 5790 5788 5786 5784 5783 5781 5779 5776 5773 5772 5770 5767 5765 5763 5761 5759
5817 5816 5816 5815 5815 5814 5813 5813 5812 5811 5810 5808 5807 5805 5804 5803 5802 5801 5799 5798 5796 5795 5793 5791 5790 5788 5786 5784 5782 5780 5778 5776 5774 5771 5768 5767 5764 5762 5760 5758 5755 5753
5812 5812 5812 5811 5810 5810 5809 5809 5808 5806 5805 5804 5802 5801 5800 5799 5798 5796 5795 5793 5792 5790 5789 5787 5785 5784 5781 5779 5778 5776 5774 5771 5769 5766 5763 5761 5759 5757 5755 5753 5751 5749
5808 5808 5807 5806 5806 5805 5805 5804 5803 5802 5800 5799 5798 5797 5795 5794 5793 5792 5790 5789 5788 5786 5785 5783 5781 5779 5777 5775 5773 5771 5769 5766 5764 5761 5758 5756 5754 5752 5750 5748 5746 5744
5803 5803 5802 5802 5801 5801 5800 5799 5798 5797 5796 5795 5794 5792 5791 5790 5788 5787 5786 5785 5783 5782 5780 5778 5776 5775 5772 5770 5768 5766 5764 5761 5759 5756 5754 5752 5750 5748 5746 5743 5741 5738
5797 5797 5797 5797 5796 5795 5795 5794 5793 5792 5791 5790 5789 5787 5786 5785 5783 5782 5781 5780 5779 5777 5776 5774 5772 5770 5767 5765 5763 5760 5758 5756 5754 5751 5749 5747 5745 5742 5740 5738 5736 5734
5792 5792 5791 5791 5791 5790 5789 5788 5787 5787 5785 5785 5784 5782 5781 5780 5779 5778 5777 5776 5774 5772 5771 5769 5767 5765 5762 5760 5758 5755 5753 5750 5748 5746 5744 5742 5739 5737 5734 5731 5729 5727
5786 5786 5786 5786 5785 5785 5784 5783 5782 5781 5780 5779 5778 5777 5776 5775 5774 5773 5772 5771 5769 5767 5766 5764 5761 5760 5757 5755 5753 5750 5747 5745 5743 5741 5738 5736 5733 5731 5729 5726 5723 5721
5781 5781 5780 5780 5780 5779 5779 5777 5777 5776 5774 5774 5773 5772 5771 5770 5770 5769 5767 5766 5765 5763 5761 5759 5757 5755 5752 5750 5747 5744 5742 5739 5737 5735 5732 5730 5727 5725 5723 5721 5718 5716
5776 5775 5775 5775 5774 5774 5773 5772 5771 5770 5769 5769 5768 5767 5767 5766 5765 5764 5763 5761 5760 5758 5756 5754 5752 5750 5747 5745 5742 5739 5737 5734 5732 5729 5727 5724 5722 5720 5717 5715 5713 5711
5770 5770 5769 5769 5768 5768 5767 5766 5765 5765 5764 5763 5762 5762 5762 5761 5760 5759 5758 5756 5754 5753 5751 5748 5746 5744 5741 5739 5736 5734 5731 5728 5726 5723 5721 5718 5716 5714 5712 5710 5708 5706
5764 5763 5763 5763 5762 5761 5761 5760 5760 5759 5759 5758 5757 5757 5757 5756 5755 5754 5752 5751 5749 5747 5745 5743 5740 5738 5735 5733 5730 5728 5726 5723 5720 5718 5715 5713 5711 5709 5707 5704 5702 5700
5757 5757 5757 5756 5756 5755 5754 5754 5754 5753 5753 5752 5751 5752 5751 5751 5750 5748 5747 5745 5743 5741 5739 5737 5735 5732 5730 5727 5725 5722 5720 5717 5715 5712 5710 5708 5706 5704 5702 5700 5697 5695
5750 5750 5750 5750 5749 5749 5748 5748 5748 5747 5747 5746 5746 5746 5746 5745 5744 5742 5741 5739 5737 5735 5733 5731 5729 5726 5724 5722 5719 5717 5714 5712 5710 5707 5705 5703 5701 5699 5697 5695 5693 5690
5743 5744 5743 5743 5743 5742 5742 5742 5742 5741 5741 5741 5741 5741 5740 5739 5738 5736 5735 5733 5732 5730 5728 5726 5724 5721 5718 5716 5713 5711 5709 5707 5705 5703 5701 5699 5697 5695 5693 5691 5689 5686
5736 5737 5736 5736 5736 5735 5735 5735 5735 5735 5735 5735 5735 5735 5734 5733 5731 5730 5729 5727 5726 5725 5723 5721 5718 5716 5713 5711 5708 5706 5704 5702 5701 5698 5696 5694 5693 5691 5689 5687 5685 5683
5730 5730 5729 5729 5728 5728 5729 5729 5729 5729 5729 5729 5729 5728 5728 5727 5726 5725 5724 5722 5721 5719 5717 5715 5712 5710 5708 5706 5704 5702 5700 5698 5696 5694 5692 5691 5689 5687 5685 5682 5680 5678
5723 5722 5722 5721 5721 5722 5722 5722 5722 5723 5723 5723 5723 5722 5722 5721 5720 5719 5718 5716 5715 5713 5711 5708 5706 5704 5702 5701 5699 5697 5695 5693 5691 5690 5688 5687 5685 5683 5681 5678 5676 5674
5716 5715 5714 5714 5714 5715 5715 5716 5716 5717 5717 5717 5716 5716 5716 5715 5714 5713 5712 5711 5709 5707 5705 5702 5700 5699 5698 5696 5694 5693 5691 5689 5687 5685 5684 5682 5681 5679 5677 5675 5673 5671
5707 5707 5707 5706 5707 5708 5709 5710 5710 5710 5710 5710 5710 5710 5709 5709 5708 5707 5706 5705 5703 5701 5699 5697 5696 5694 5693 5691 5690 5688 5686 5684 5682 5681 5679 5677 5676 5674 5673 5671 5669 5667
5699 5699 5699 5700 5700 5701 5702 5703 5703 5703 5703 5703 5703 5703 5703 5703 5702 5701 5700 5699 5697 5695 5694 5693 5691 5689 5688 5686 5685 5683 5681 5679 5678 5676 5674 5672 5671 5669 5668 5666 5664 5662
5691 5691 5692 5693 5693 5694 5695 5696 5697 5697 5697 5697 5697 5697 5697 5696 5695 5695 5694 5692 5691 5689 5688 5687 5686 5685 5683 5682 5680 5678 5676 5674 5672 5671 5669 5667 5666 5664 5662 5661 5659 5657